Вернуться в каталог

PSLV R/B

АктивенSSO
NORAD 29713·ROCKET BODY·🇮🇳 India

Запущен Jan 10, 2007 с Satish Dhawan Space Centre

Loading…

Ближайшие Пролёты (ближайшие 24 часа)

TLE

СвежийSource: Space-Track

Эпоха: Sep 14, 2026, 21:52 UTC

1 29713U 07001E   26257.91165787  .00002230  00000-0  18983-3 0  9995
2 29713  98.0122 292.6935 0020657 159.6122 200.5929 14.98736803 66354

Отслеживайте PSLV R/B в реальном времени с AllMySat

Download on the App Store